Time,TemperatureF,DewpointF,PressureIn,WindDirection,WindDirectionDegrees,WindSpeedMPH,WindSpeedGustMPH,Humidity,HourlyPrecipIn,Conditions,Clouds,dailyrainin,SoftwareType,DateUTC
2013-04-29 00:09:00,53.4,52.6,29.70,SSW,202,0.0,-999.0,97,-99.99,,,0.00,Acu-Link.com,2013-04-29 04:09:00,
2013-04-29 00:24:00,52.7,52.2,29.71,South,180,0.0,-999.0,98,-99.99,,,0.00,Acu-Link.com,2013-04-29 04:24:00,
2013-04-29 00:39:00,52.3,52.0,29.70,South,180,0.0,-999.0,99,-99.99,,,0.00,Acu-Link.com,2013-04-29 04:39:00,
2013-04-29 00:54:00,52.0,51.7,29.71,South,180,0.0,-999.0,99,-99.99,,,0.00,Acu-Link.com,2013-04-29 04:54:00,
2013-04-29 01:10:00,52.3,52.0,29.71,SSE,157,0.0,-999.0,99,-99.99,,,0.00,Acu-Link.com,2013-04-29 05:10:00,
2013-04-29 01:25:00,53.1,52.8,29.71,West,270,3.2,-999.0,99,-99.99,,,0.00,Acu-Link.com,2013-04-29 05:25:00,
2013-04-29 01:40:00,53.6,53.0,29.72,SSE,157,1.7,-999.0,98,-99.99,,,0.00,Acu-Link.com,2013-04-29 05:40:00,
2013-04-29 01:56:00,53.8,53.2,29.72,West,270,1.7,-999.0,98,-99.99,,,0.00,Acu-Link.com,2013-04-29 05:56:00,
2013-04-29 02:11:00,54.0,53.4,29.72,West,270,3.7,-999.0,98,-99.99,,,0.00,Acu-Link.com,2013-04-29 06:11:00,
2013-04-29 02:26:00,54.0,53.2,29.72,West,270,7.3,-999.0,97,-99.99,,,0.00,Acu-Link.com,2013-04-29 06:26:00,
2013-04-29 02:41:00,54.0,53.2,29.72,WNW,292,4.7,-999.0,97,-99.99,,,0.00,Acu-Link.com,2013-04-29 06:41:00,
2013-04-29 02:57:00,54.0,53.2,29.72,SW,225,2.7,-999.0,97,-99.99,,,0.00,Acu-Link.com,2013-04-29 06:57:00,
2013-04-29 03:12:00,53.8,53.0,29.73,WNW,292,3.7,-999.0,97,-99.99,,,0.00,Acu-Link.com,2013-04-29 07:12:00,
2013-04-29 03:27:00,53.8,52.7,29.73,WSW,247,2.7,-999.0,96,-99.99,,,0.00,Acu-Link.com,2013-04-29 07:27:00,
2013-04-29 03:43:00,53.8,52.7,29.73,SW,225,1.7,-999.0,96,-99.99,,,0.00,Acu-Link.com,2013-04-29 07:43:00,
2013-04-29 03:58:00,53.8,52.7,29.73,WSW,247,0.0,-999.0,96,-99.99,,,0.00,Acu-Link.com,2013-04-29 07:58:00,
2013-04-29 04:13:00,53.8,52.7,29.73,SW,225,0.0,-999.0,96,-99.99,,,0.00,Acu-Link.com,2013-04-29 08:13:00,
2013-04-29 04:28:00,53.8,52.7,29.73,WNW,292,1.7,-999.0,96,-99.99,,,0.00,Acu-Link.com,2013-04-29 08:28:00,
2013-04-29 04:43:00,53.6,52.5,29.73,West,270,2.2,-999.0,96,-99.99,,,0.00,Acu-Link.com,2013-04-29 08:43:00,
2013-04-29 04:59:00,53.6,52.5,29.74,WSW,247,1.7,-999.0,96,-99.99,,,0.00,Acu-Link.com,2013-04-29 08:59:00,
2013-04-29 05:14:00,53.6,52.8,29.74,SSW,202,1.7,-999.0,97,-99.99,,,0.00,Acu-Link.com,2013-04-29 09:14:00,
2013-04-29 05:29:00,53.6,52.8,29.74,SSE,157,2.2,-999.0,97,-99.99,,,0.00,Acu-Link.com,2013-04-29 09:29:00,
2013-04-29 05:45:00,53.6,52.8,29.74,West,270,2.7,-999.0,97,-99.99,,,0.00,Acu-Link.com,2013-04-29 09:45:00,
2013-04-29 06:00:00,53.6,52.8,29.74,WSW,247,2.2,-999.0,97,-99.99,,,0.00,Acu-Link.com,2013-04-29 10:00:00,
2013-04-29 06:15:00,53.6,52.8,29.74,SW,225,0.0,-999.0,97,-99.99,,,0.00,Acu-Link.com,2013-04-29 10:15:00,
2013-04-29 06:30:00,53.6,53.0,29.75,WSW,247,0.0,-999.0,98,-99.99,,,0.00,Acu-Link.com,2013-04-29 10:30:00,
2013-04-29 06:46:00,53.6,53.0,29.75,West,270,0.0,-999.0,98,-99.99,,,0.00,Acu-Link.com,2013-04-29 10:46:00,
2013-04-29 07:01:00,53.6,53.3,29.76,SSW,202,2.2,-999.0,99,-99.99,,,0.00,Acu-Link.com,2013-04-29 11:01:00,
2013-04-29 07:16:00,53.8,53.5,29.76,WSW,247,1.7,-999.0,99,-99.99,,,0.00,Acu-Link.com,2013-04-29 11:16:00,
2013-04-29 07:32:00,54.0,53.7,29.77,SSE,157,1.7,-999.0,99,-99.99,,,0.00,Acu-Link.com,2013-04-29 11:32:00,
2013-04-29 07:47:00,54.0,53.7,29.77,SSW,202,1.7,-999.0,99,-99.99,,,0.00,Acu-Link.com,2013-04-29 11:47:00,
2013-04-29 08:02:00,54.0,53.7,29.78,West,270,3.2,-999.0,99,-99.99,,,0.00,Acu-Link.com,2013-04-29 12:02:00,
2013-04-29 08:18:00,54.1,53.8,29.78,WSW,247,2.2,-999.0,99,-99.99,,,0.00,Acu-Link.com,2013-04-29 12:18:00,
2013-04-29 08:33:00,54.7,54.1,29.78,SSW,202,2.7,-999.0,98,-99.99,,,0.00,Acu-Link.com,2013-04-29 12:33:00,
2013-04-29 08:48:00,55.0,54.2,29.79,South,180,2.2,-999.0,97,-99.99,,,0.00,Acu-Link.com,2013-04-29 12:48:00,
2013-04-29 09:04:00,55.2,54.1,29.79,West,270,2.2,-999.0,96,-99.99,,,0.00,Acu-Link.com,2013-04-29 13:04:00,
2013-04-29 09:19:00,56.3,55.2,29.79,West,270,1.7,-999.0,96,-99.99,,,0.00,Acu-Link.com,2013-04-29 13:19:00,
2013-04-29 09:34:00,56.5,54.8,29.79,SSW,202,2.7,-999.0,94,-99.99,,,0.00,Acu-Link.com,2013-04-29 13:34:00,
2013-04-29 09:50:00,56.3,54.9,29.79,SSW,202,1.7,-999.0,95,-99.99,,,0.00,Acu-Link.com,2013-04-29 13:50:00,
2013-04-29 10:05:00,57.2,54.6,29.80,SW,225,2.2,-999.0,91,-99.99,,,0.00,Acu-Link.com,2013-04-29 14:05:00,
2013-04-29 10:20:00,56.7,54.7,29.80,WSW,247,3.7,-999.0,93,-99.99,,,0.00,Acu-Link.com,2013-04-29 14:20:00,
2013-04-29 10:35:00,57.2,54.6,29.79,West,270,1.7,-999.0,91,-99.99,,,0.00,Acu-Link.com,2013-04-29 14:35:00,
2013-04-29 10:50:00,57.6,55.3,29.80,SW,225,0.0,-999.0,92,-99.99,,,0.00,Acu-Link.com,2013-04-29 14:50:00,
2013-04-29 11:06:00,57.9,55.0,29.80,West,270,2.2,-999.0,90,-99.99,,,0.00,Acu-Link.com,2013-04-29 15:06:00,
2013-04-29 11:21:00,57.7,55.1,29.80,WSW,247,2.2,-999.0,91,-99.99,,,0.00,Acu-Link.com,2013-04-29 15:21:00,
2013-04-29 11:36:00,57.9,55.0,29.81,WSW,247,2.2,-999.0,90,-99.99,,,0.00,Acu-Link.com,2013-04-29 15:36:00,
2013-04-29 11:52:00,59.4,55.8,29.81,West,270,1.7,-999.0,88,-99.99,,,0.00,Acu-Link.com,2013-04-29 15:52:00,
2013-04-29 12:07:00,60.1,55.6,29.81,WSW,247,3.2,-999.0,85,-99.99,,,0.00,Acu-Link.com,2013-04-29 16:07:00,
2013-04-29 12:22:00,60.3,56.1,29.81,West,270,2.2,-999.0,86,-99.99,,,0.00,Acu-Link.com,2013-04-29 16:22:00,
2013-04-29 12:38:00,60.4,56.2,29.80,SSW,202,2.7,-999.0,86,-99.99,,,0.00,Acu-Link.com,2013-04-29 16:38:00,
2013-04-29 12:53:00,60.4,55.9,29.80,WNW,292,3.7,-999.0,85,-99.99,,,0.00,Acu-Link.com,2013-04-29 16:53:00,
2013-04-29 13:08:00,61.7,56.5,29.79,East,90,1.7,-999.0,83,-99.99,,,0.00,Acu-Link.com,2013-04-29 17:08:00,
2013-04-29 13:24:00,61.7,55.5,29.80,West,270,2.7,-999.0,80,-99.99,,,0.00,Acu-Link.com,2013-04-29 17:24:00,
2013-04-29 13:39:00,62.8,55.5,29.79,West,270,1.7,-999.0,77,-99.99,,,0.00,Acu-Link.com,2013-04-29 17:39:00,
2013-04-29 13:54:00,64.2,56.1,29.79,West,270,4.7,-999.0,75,-99.99,,,0.00,Acu-Link.com,2013-04-29 17:54:00,
2013-04-29 14:09:00,63.1,55.8,29.78,West,270,2.7,-999.0,77,-99.99,,,0.00,Acu-Link.com,2013-04-29 18:09:00,
2013-04-29 14:25:00,65.1,55.5,29.78,WNW,292,0.0,-999.0,71,-99.99,,,0.00,Acu-Link.com,2013-04-29 18:25:00,
2013-04-29 14:40:00,63.3,54.1,29.78,SSE,157,5.3,-999.0,72,-99.99,,,0.00,Acu-Link.com,2013-04-29 18:40:00,
2013-04-29 14:55:00,61.9,55.3,29.78,SSE,157,3.2,-999.0,79,-99.99,,,0.00,Acu-Link.com,2013-04-29 18:55:00,
2013-04-29 15:10:00,61.5,55.3,29.77,South,180,4.7,-999.0,80,-99.99,,,0.00,Acu-Link.com,2013-04-29 19:10:00,
2013-04-29 15:25:00,61.5,55.3,29.78,South,180,3.7,-999.0,80,-99.99,,,0.00,Acu-Link.com,2013-04-29 19:25:00,
2013-04-29 15:41:00,62.1,54.8,29.77,SSE,157,2.7,-999.0,77,-99.99,,,0.00,Acu-Link.com,2013-04-29 19:41:00,
2013-04-29 15:56:00,62.2,55.3,29.77,SE,135,2.7,-999.0,78,-99.99,,,0.00,Acu-Link.com,2013-04-29 19:56:00,
2013-04-29 16:11:00,62.6,54.2,29.77,South,180,2.7,-999.0,74,-99.99,,,0.00,Acu-Link.com,2013-04-29 20:11:00,
2013-04-29 16:27:00,63.1,55.0,29.76,SE,135,3.7,-999.0,75,-99.99,,,0.00,Acu-Link.com,2013-04-29 20:27:00,
2013-04-29 16:42:00,63.5,55.8,29.76,ESE,112,2.7,-999.0,76,-99.99,,,0.00,Acu-Link.com,2013-04-29 20:42:00,
2013-04-29 16:57:00,63.3,54.9,29.76,WSW,247,3.7,-999.0,74,-99.99,,,0.00,Acu-Link.com,2013-04-29 20:57:00,
2013-04-29 17:12:00,63.9,55.1,29.76,West,270,3.7,-999.0,73,-99.99,,,0.00,Acu-Link.com,2013-04-29 21:12:00,
2013-04-29 17:27:00,65.3,54.9,29.75,SW,225,3.2,-999.0,69,-99.99,,,0.00,Acu-Link.com,2013-04-29 21:27:00,
2013-04-29 17:43:00,64.4,54.4,29.75,SSW,202,3.7,-999.0,70,-99.99,,,0.00,Acu-Link.com,2013-04-29 21:43:00,
2013-04-29 17:58:00,65.3,54.9,29.76,WSW,247,2.7,-999.0,69,-99.99,,,0.00,Acu-Link.com,2013-04-29 21:58:00,
2013-04-29 18:13:00,65.8,55.3,29.75,South,180,3.7,-999.0,69,-99.99,,,0.00,Acu-Link.com,2013-04-29 22:13:00,
2013-04-29 18:28:00,66.6,56.1,29.74,SSE,157,3.7,-999.0,69,-99.99,,,0.00,Acu-Link.com,2013-04-29 22:28:00,
2013-04-29 18:44:00,66.4,55.5,29.74,West,270,4.7,-999.0,68,-99.99,,,0.00,Acu-Link.com,2013-04-29 22:44:00,
2013-04-29 18:59:00,65.8,55.3,29.74,South,180,2.2,-999.0,69,-99.99,,,0.00,Acu-Link.com,2013-04-29 22:59:00,
2013-04-29 19:14:00,64.0,54.8,29.74,SSE,157,1.7,-999.0,72,-99.99,,,0.00,Acu-Link.com,2013-04-29 23:14:00,
2013-04-29 19:30:00,64.0,54.8,29.74,South,180,2.2,-999.0,72,-99.99,,,0.00,Acu-Link.com,2013-04-29 23:30:00,
2013-04-29 19:45:00,64.4,55.2,29.74,East,90,2.2,-999.0,72,-99.99,,,0.00,Acu-Link.com,2013-04-29 23:45:00,
2013-04-29 20:00:00,63.1,54.7,29.74,SSE,157,2.2,-999.0,74,-99.99,,,0.00,Acu-Link.com,2013-04-30 00:00:00,
2013-04-29 20:16:00,62.2,54.9,29.75,ENE,67,0.0,-999.0,77,-99.99,,,0.00,Acu-Link.com,2013-04-30 00:16:00,
2013-04-29 20:31:00,60.4,54.2,29.75,WNW,292,0.0,-999.0,80,-99.99,,,0.00,Acu-Link.com,2013-04-30 00:31:00,
2013-04-29 20:46:00,59.0,53.5,29.75,WNW,292,0.0,-999.0,82,-99.99,,,0.00,Acu-Link.com,2013-04-30 00:46:00,
2013-04-29 21:01:00,57.2,53.0,29.75,East,90,0.0,-999.0,86,-99.99,,,0.00,Acu-Link.com,2013-04-30 01:01:00,
2013-04-29 21:16:00,56.1,52.6,29.76,East,90,0.0,-999.0,88,-99.99,,,0.00,Acu-Link.com,2013-04-30 01:16:00,
2013-04-29 21:32:00,55.2,52.0,29.75,East,90,0.0,-999.0,89,-99.99,,,0.00,Acu-Link.com,2013-04-30 01:32:00,
2013-04-29 21:47:00,54.3,51.7,29.76,East,90,0.0,-999.0,91,-99.99,,,0.00,Acu-Link.com,2013-04-30 01:47:00,
2013-04-29 22:02:00,54.5,52.5,29.76,South,180,0.0,-999.0,93,-99.99,,,0.00,Acu-Link.com,2013-04-30 02:02:00,
2013-04-29 22:18:00,54.5,52.2,29.76,SSW,202,0.0,-999.0,92,-99.99,,,0.00,Acu-Link.com,2013-04-30 02:18:00,
2013-04-29 22:33:00,54.0,52.3,29.76,SSW,202,0.0,-999.0,94,-99.99,,,0.00,Acu-Link.com,2013-04-30 02:33:00,
2013-04-29 22:48:00,53.4,52.0,29.77,South,180,0.0,-999.0,95,-99.99,,,0.00,Acu-Link.com,2013-04-30 02:48:00,
2013-04-29 23:04:00,52.5,51.1,29.77,NE,45,0.0,-999.0,95,-99.99,,,0.00,Acu-Link.com,2013-04-30 03:04:00,
2013-04-29 23:19:00,52.0,51.2,29.77,West,270,0.0,-999.0,97,-99.99,,,0.00,Acu-Link.com,2013-04-30 03:19:00,
2013-04-29 23:34:00,51.4,50.6,29.77,West,270,0.0,-999.0,97,-99.99,,,0.00,Acu-Link.com,2013-04-30 03:34:00,
2013-04-29 23:49:00,50.9,50.1,29.77,West,270,0.0,-999.0,97,-99.99,,,0.00,Acu-Link.com,2013-04-30 03:49:00,